LVLHI SASA-SANT

Flight info

Callsign LVLHI
Flight time 0h 33m
Altitude 23000
Route SAL DCT PONPI PONPI1U
Aircraft C25C/M-SDE2E3FGHRWXY/LB1

Departure

Time 2026-05-04 16:05
Airport Martín Miguel de Güemes International Airport (SASA)

Arrival

Time 2026-05-04 16:38
Airport Teniente Benjamín Matienzo International Airport (SANT)
Time Latitude Longitude Altitude Speed Heading
2026-05-04 15:26 -24.84272 -65.48067 4011 ft 0 kts 176°
2026-05-04 15:55 -24.84279 -65.48067 4000 ft 6 kts 186°
2026-05-04 15:55 -24.84331 -65.48071 4004 ft 10 kts 179°
2026-05-04 15:55 -24.84386 -65.48060 4011 ft 1 kts 166°
2026-05-04 15:57 -24.84394 -65.48058 4008 ft 7 kts 166°
2026-05-04 15:57 -24.84498 -65.48045 4005 ft 17 kts 178°
2026-05-04 15:57 -24.84508 -65.47991 4008 ft 8 kts 70°
2026-05-04 15:58 -24.84500 -65.47929 4011 ft 9 kts 108°
2026-05-04 15:58 -24.84526 -65.47860 4008 ft 10 kts 111°
2026-05-04 15:58 -24.84558 -65.47793 4005 ft 10 kts 144°
2026-05-04 15:58 -24.84617 -65.47763 4005 ft 9 kts 157°
2026-05-04 15:59 -24.84677 -65.47735 4011 ft 9 kts 157°
2026-05-04 15:59 -24.84735 -65.47708 4011 ft 9 kts 157°
2026-05-04 15:59 -24.84794 -65.47680 4011 ft 9 kts 157°
2026-05-04 15:59 -24.84854 -65.47658 4011 ft 9 kts 173°
2026-05-04 16:00 -24.84909 -65.47692 4009 ft 10 kts 230°
2026-05-04 16:00 -24.84951 -65.47747 4012 ft 10 kts 229°
2026-05-04 16:00 -24.85002 -65.47818 4013 ft 16 kts 231°
2026-05-04 16:00 -24.85102 -65.47959 4013 ft 30 kts 232°
2026-05-04 16:01 -24.85251 -65.48167 4012 ft 39 kts 232°
2026-05-04 16:01 -24.85477 -65.48218 4006 ft 35 kts 166°
2026-05-04 16:01 -24.85710 -65.48173 4003 ft 33 kts 171°
2026-05-04 16:01 -24.85930 -65.48137 4011 ft 31 kts 172°
2026-05-04 16:02 -24.86123 -65.48144 4011 ft 25 kts 247°
2026-05-04 16:02 -24.86100 -65.48353 4011 ft 40 kts 282°
2026-05-04 16:02 -24.86139 -65.48726 4005 ft 27 kts 195°
2026-05-04 16:03 -24.86413 -65.48797 4010 ft 53 kts 191°
2026-05-04 16:03 -24.86827 -65.48891 4009 ft 62 kts 189°
2026-05-04 16:03 -24.87167 -65.48799 4011 ft 26 kts 162°
2026-05-04 16:03 -24.87291 -65.48813 4011 ft 18 kts 226°
2026-05-04 16:04 -24.87306 -65.48876 4012 ft 0 kts 282°
2026-05-04 16:04 -24.87250 -65.48978 4013 ft 17 kts 14°
2026-05-04 16:04 -24.86966 -65.48916 4001 ft 86 kts 11°
2026-05-04 16:05 -24.86107 -65.48730 4259 ft 157 kts 11°
2026-05-04 16:05 -24.84900 -65.48404 5064 ft 198 kts 24°
2026-05-04 16:05 -24.82038 -65.46335 5968 ft 291 kts 32°
2026-05-04 16:06 -24.80387 -65.45152 6399 ft 268 kts 37°
2026-05-04 16:06 -24.80388 -65.40644 7429 ft 275 kts 139°
2026-05-04 16:07 -24.82827 -65.39671 7993 ft 289 kts 174°
2026-05-04 16:07 -24.88599 -65.40736 8950 ft 288 kts 206°
2026-05-04 16:08 -24.90350 -65.41887 8971 ft 298 kts 217°
2026-05-04 16:08 -24.94528 -65.47183 8965 ft 317 kts 223°
2026-05-04 16:09 -24.98725 -65.47972 9507 ft 331 kts 161°
2026-05-04 16:09 -25.02930 -65.45598 10596 ft 343 kts 153°
2026-05-04 16:10 -25.07492 -65.43671 11433 ft 355 kts 170°
2026-05-04 16:11 -25.14910 -65.42633 13018 ft 362 kts 172°
2026-05-04 16:11 -25.17396 -65.42117 13514 ft 364 kts 172°
2026-05-04 16:12 -25.24958 -65.40749 14796 ft 369 kts 174°
2026-05-04 16:12 -25.32592 -65.39355 16047 ft 374 kts 173°
2026-05-04 16:13 -25.37757 -65.38422 16784 ft 378 kts 173°
2026-05-04 16:13 -25.42971 -65.37474 17506 ft 381 kts 173°
2026-05-04 16:14 -25.48222 -65.36520 18174 ft 384 kts 173°
2026-05-04 16:14 -25.53502 -65.35558 18785 ft 386 kts 174°
2026-05-04 16:15 -25.61252 -65.34147 19559 ft 389 kts 174°
2026-05-04 16:16 -25.66644 -65.33166 20012 ft 393 kts 174°
2026-05-04 16:16 -25.74742 -65.31686 20941 ft 393 kts 174°
2026-05-04 16:17 -25.80123 -65.30684 21571 ft 392 kts 174°
2026-05-04 16:18 -25.88211 -65.29166 22544 ft 399 kts 175°
2026-05-04 16:18 -25.90970 -65.28643 22822 ft 406 kts 175°
2026-05-04 16:19 -25.99642 -65.27012 22925 ft 434 kts 175°
2026-05-04 16:19 -26.05392 -65.26514 22920 ft 396 kts 185°
2026-05-04 16:20 -26.13594 -65.26436 22921 ft 400 kts 184°
2026-05-04 16:20 -26.19213 -65.26394 22923 ft 407 kts 184°
2026-05-04 16:21 -26.27810 -65.26324 22508 ft 408 kts 184°
2026-05-04 16:22 -26.33181 -65.26269 21374 ft 367 kts 184°
2026-05-04 16:22 -26.40457 -65.26221 19834 ft 334 kts 184°
2026-05-04 16:23 -26.47397 -65.26164 18453 ft 331 kts 183°
2026-05-04 16:24 -26.56111 -65.26095 16472 ft 324 kts 182°
2026-05-04 16:25 -26.60644 -65.26059 15279 ft 327 kts 182°
2026-05-04 16:26 -26.67880 -65.21116 13298 ft 332 kts 108°
2026-05-04 16:26 -26.68581 -65.13559 12012 ft 323 kts 94°
2026-05-04 16:27 -26.68953 -65.08583 11169 ft 320 kts 94°
2026-05-04 16:28 -26.69417 -65.02208 10075 ft 295 kts 93°
2026-05-04 16:28 -26.69890 -64.95607 8920 ft 275 kts 92°
2026-05-04 16:29 -26.68322 -64.88034 7527 ft 257 kts 31°
2026-05-04 16:30 -26.63331 -64.88171 6570 ft 253 kts 323°
2026-05-04 16:31 -26.61792 -64.91445 6500 ft 237 kts 278°
2026-05-04 16:31 -26.61395 -64.97148 6199 ft 256 kts 276°
2026-05-04 16:32 -26.61405 -65.02812 5434 ft 229 kts 247°
2026-05-04 16:33 -26.63634 -65.05016 5008 ft 214 kts 205°
2026-05-04 16:33 -26.66313 -65.06376 4562 ft 211 kts 205°
2026-05-04 16:34 -26.68988 -65.07612 4105 ft 206 kts 189°
2026-05-04 16:34 -26.70412 -65.07840 3817 ft 205 kts 189°
2026-05-04 16:35 -26.74103 -65.08565 3110 ft 147 kts 188°
2026-05-04 16:35 -26.76787 -65.09078 2547 ft 108 kts 188°
2026-05-04 16:36 -26.77534 -65.09224 2410 ft 111 kts 189°
2026-05-04 16:36 -26.79057 -65.09529 2158 ft 110 kts 191°
2026-05-04 16:37 -26.80521 -65.09816 1870 ft 102 kts 192°
2026-05-04 16:37 -26.81231 -65.09922 1722 ft 104 kts 191°
2026-05-04 16:37 -26.82653 -65.10201 1493 ft 97 kts 191°
2026-05-04 16:38 -26.83659 -65.10400 1479 ft 45 kts 190°
2026-05-04 16:39 -26.83906 -65.10659 1486 ft 14 kts 333°
2026-05-04 16:39 -26.83721 -65.10738 1486 ft 15 kts 338°
2026-05-04 16:40 -26.83699 -65.10742 1486 ft 0 kts 326°
2026-05-04 16:40 -26.83620 -65.10712 1481 ft 17 kts 12°
2026-05-04 16:41 -26.83477 -65.10684 1486 ft 3 kts 334°
2026-05-04 16:41 -26.83462 -65.10737 1482 ft 0 kts 326°
2026-05-04 16:42 -26.83458 -65.10737 1483 ft 0 kts 26°